[[{"header":{"parameterUnit":"m.s-1","parameterCategory":2,"la1":30.2991,"la2":30.254,"lo1":-89.0895,"lo2":-89.0444,"dy":0.0017,"dx":0.0017,"nx":28,"ny":28,"refTime":"2023-07-22T09:00:00:Z","depth":"0","parameterNumber":2,"parameterNumberName":"U-component_of_CURRENTS"},"data":[0,0,0,0,0,0,0,0,0,0,0,0,0,0,0,0,0,0,0,0,0,0,0,0,0,0,0,0,0,0,0,0,0,0,0,0,0,0,0,0,0,0,0,0,0,0,0,0,0,0,0,0,0,0,0,0,0,0,0.2353,0.2355,0,0.254,0.2543,0.2545,0.262,0.2619,0.2618,0.2617,0.2667,0.2669,0.2671,0,0,0,0,0,0,0,0,0,0,0,0,0,0.2321,0.232,0.2353,0.2355,0.2357,0.254,0.2543,0.2546,0.262,0.2619,0.2618,0.2617,0.2666,0.2669,0.2672,0,0,0,0,0,0,0,0,0,0,0,0,0,0.2408,0.2319,0.2353,0.2412,0.2419,0.2539,0.2543,0.2547,0.262,0.2619,0.2617,0.2616,0.2666,0.2669,0.2672,0.2719,0,0,0.2682,0.2683,0,0,0,0,0,0,0,0,0.2402,0.2409,0.2402,0.2408,0.2416,0.2551,0.255,0.2596,0.262,0.2549,0.2617,0.2615,0.2613,0.2621,0.2668,0.2722,0.2724,0.2682,0.2684,0.2686,0.2687,0,0,0,0,0,0,0,0.2396,0.2403,0.2432,0.2404,0.2412,0.2519,0.2528,0.2561,0.2588,0.2555,0.256,0.2573,0.2617,0.2665,0.2669,0.2725,0.2682,0.2685,0.2687,0.2688,0.2862,0.2865,0,0,0,0,0,0,0.2351,0.2396,0.2426,0.2437,0.2401,0.2519,0.253,0.2513,0.259,0.2601,0.2574,0.2576,0.266,0.2665,0.2671,0.2738,0.2686,0.2689,0.2691,0.2859,0.2863,0.2865,0,0,0,0,0,0,0.2349,0.235,0.2418,0.242,0.2435,0.2518,0.2501,0.2517,0.258,0.2606,0.2614,0.2621,0.2659,0.2666,0.2711,0.274,0.269,0.2693,0.2856,0.286,0.2864,0.2867,0,0,0,0,0,0,0.2347,0.2348,0.2348,0.2415,0.2432,0.2466,0.2503,0.2522,0.2587,0.2592,0.2648,0.2651,0.2659,0.2706,0.2714,0.2743,0.2696,0.2853,0.2858,0.2863,0.2864,0.2871,0.2877,0,0,0,0,0,0.2345,0.2353,0.2346,0.2352,0.2419,0.2465,0.2485,0.2546,0.2591,0.2604,0.2659,0.265,0.2744,0.271,0.2719,0.275,0.285,0.2857,0.2862,0.2861,0.287,0.2877,0,0,0,0,0,0,0.2351,0.2363,0.2357,0.2369,0.2395,0.2475,0.2493,0.2562,0.2628,0.2625,0.2677,0.2684,0.2738,0.2753,0.2716,0.2821,0.2799,0.2807,0.2796,0.2804,0.281,0.2831,0.2698,0,0,0,0,0,0.2343,0.2357,0.2364,0.2385,0.2361,0.2434,0.2475,0.2512,0.257,0.2601,0.2643,0.2701,0.2774,0.2792,0.2833,0.2884,0.2914,0.2916,0.2923,0.2928,0.2955,0.3007,0.302,0.2885,0.2885,0.2885,0,0,0.2356,0.2371,0.2377,0.2389,0.2397,0.2388,0.2454,0.2484,0.2535,0.2591,0.2653,0.2717,0.2796,0.2854,0.288,0.2864,0.2986,0.2935,0.2939,0.2964,0.3014,0.3027,0.3038,0.2889,0.2888,0.2888,0,0,0.238,0.2364,0.2357,0.2355,0.236,0.2387,0.2392,0.2442,0.2498,0.2571,0.2645,0.2743,0.2807,0.2896,0.2952,0.303,0.3022,0.3027,0.3068,0.3117,0.3128,0.3138,0.3199,0.3214,0.3024,0.3024,0.3024,0,0.2362,0.2368,0.2372,0.2347,0.2341,0.2374,0.235,0.242,0.2511,0.2576,0.2569,0.2789,0.2847,0.3002,0.3037,0.3046,0.3059,0.3022,0.3122,0.3132,0.3142,0.3203,0.3219,0.3025,0.3025,0.3025,0.3025,0,0.2368,0.2358,0.2339,0.2302,0.231,0.229,0.2324,0.2377,0.2445,0.2538,0.269,0.28,0.2945,0.2982,0.3039,0.3166,0.3149,0.3121,0.309,0.3155,0.3216,0.3233,0.3026,0.3026,0.3026,0.3025,0,0,0.2277,0.2325,0.2306,0.2289,0.2268,0.227,0.2326,0.2397,0.2466,0.2585,0.2717,0.2903,0.2994,0.307,0.3161,0.3221,0.3323,0.3198,0.32,0.324,0.3425,0.3354,0.3366,0.3277,0.328,0.3283,0.344,0,0.223,0.2242,0.2263,0.2231,0.2196,0.2227,0.2282,0.2379,0.2467,0.2593,0.2793,0.293,0.3018,0.3095,0.3188,0.3309,0.3367,0.3284,0.3376,0.338,0.329,0.3383,0.3215,0.3334,0.3457,0.3459,0.3462,0,0.2182,0.2193,0.2201,0.2208,0.2179,0.2176,0.2236,0.2299,0.2492,0.258,0.2774,0.2913,0.3159,0.3149,0.3411,0.334,0.3395,0.345,0.3455,0.3404,0.3341,0.3291,0.3361,0.3333,0.3488,0.3486,0.3484,0,0.216,0.2126,0.216,0.2148,0.217,0.2177,0.2178,0.2306,0.24,0.2584,0.2682,0.2945,0.3102,0.3241,0.345,0.3413,0.3655,0.361,0.3598,0.3593,0.3484,0.3464,0.3522,0.372,0.372,0.3719,0.3719,0,0.2123,0.2109,0.2146,0.2147,0.2127,0.214,0.2176,0.2226,0.2376,0.2506,0.2686,0.285,0.3115,0.3315,0.3451,0.3622,0.3675,0.3645,0.3638,0.3481,0.346,0.3456,0.3386,0.3725,0.3724,0.3723,0.3722,0,0.2131,0.2173,0.217,0.2162,0.214,0.2132,0.2153,0.2205,0.2321,0.2496,0.2576,0.2836,0.3063,0.33,0.3529,0.3618,0.3673,0.3778,0.3595,0.3563,0.3493,0.3427,0.3375,0.3285,0.3806,0.3805,0.3805,0,0.2176,0.2188,0.2177,0.2171,0.2153,0.214,0.2143,0.2197,0.2261,0.2504,0.2594,0.2841,0.3058,0.3381,0.3506,0.3706,0.3621,0.364,0.3544,0.3502,0.3425,0.3311,0.3231,0.3417,0.3413,0.341,0.3408,0,0.2201,0.2212,0.223,0.2213,0.2184,0.2144,0.213,0.2184,0.23,0.244,0.2641,0.2826,0.3091,0.3224,0.3421,0.3523,0.3455,0.3579,0.3581,0.3175,0.3009,0.2913,0.3321,0.338,0.3383,0.3385,0.3386,0.3388,0.2235,0.2246,0.2285,0.2255,0.2217,0.2142,0.2114,0.2145,0.2238,0.2409,0.2594,0.2774,0.2958,0.32,0.3297,0.3278,0.325,0.3242,0.3189,0.3102,0.2927,0.3285,0.3292,0.3294,0.3296,0.3298,0.3299,0,0.2287,0.2298,0.23,0.2267,0.2216,0.2162,0.2119,0.2101,0.2172,0.2303,0.2471,0.2622,0.2731,0.2867,0.2908,0.2916,0.2838,0.2897,0.2713,0.2671,0.3052,0.2949,0.2823,0.2823,0.2823,0.2823,0.2823,0.2823,0.2333,0.2355,0.235,0.2285,0.2232,0.2113,0.2069,0.2046,0.2077,0.2142,0.22,0.231,0.2511,0.2614,0.2629,0.2616,0.2519,0.2411,0.2464,0.2751,0.278,0.2808,0.2703,0.2527,0.2526,0.2004,0.2,0.1997]},{"header":{"parameterUnit":"m.s-1","parameterCategory":2,"la1":30.2991,"la2":30.254,"lo1":-89.0895,"lo2":-89.0444,"dy":0.0017,"dx":0.0017,"nx":28,"ny":28,"refTime":"2023-07-22T09:00:00:Z","depth":"0","parameterNumber":3,"parameterNumberName":"V-component_of_CURRENTS"},"data":[0,0,0,0,0,0,0,0,0,0,0,0,0,0,0,0,0,0,0,0,0,0,0,0,0,0,0,0,0,0,0,0,0,0,0,0,0,0,0,0,0,0,0,0,0,0,0,0,0,0,0,0,0,0,0,0,0,0,0.1285,0.1284,0,0.1195,0.1194,0.1193,0.1175,0.1176,0.1177,0.1178,0.1154,0.1153,0.1151,0,0,0,0,0,0,0,0,0,0,0,0,0,0.1421,0.1418,0.1285,0.1284,0.1283,0.1196,0.1194,0.1193,0.1175,0.1176,0.1177,0.1178,0.1155,0.1153,0.1151,0,0,0,0,0,0,0,0,0,0,0,0,0,0.1347,0.1417,0.1285,0.1266,0.1264,0.1196,0.1194,0.1192,0.1174,0.1176,0.1177,0.1179,0.1155,0.1153,0.1151,0.1107,0,0,0.1144,0.1143,0,0,0,0,0,0,0,0,0.1351,0.1341,0.127,0.1267,0.1264,0.12,0.1233,0.1168,0.1174,0.1205,0.1178,0.1179,0.1177,0.1173,0.1147,0.1106,0.1105,0.1143,0.1142,0.1141,0.114,0,0,0,0,0,0,0,0.1356,0.1345,0.1246,0.1269,0.1265,0.1255,0.1246,0.122,0.1183,0.1202,0.1202,0.1196,0.1175,0.1149,0.1147,0.1105,0.1143,0.1141,0.114,0.1139,0.1089,0.1089,0,0,0,0,0,0,0.1372,0.1349,0.1249,0.1244,0.1315,0.1252,0.1242,0.1217,0.1181,0.1178,0.1195,0.1196,0.1153,0.1149,0.1146,0.1146,0.1141,0.1139,0.1138,0.1089,0.1089,0.1089,0,0,0,0,0,0,0.1375,0.1363,0.1253,0.1299,0.1284,0.1249,0.1221,0.1215,0.121,0.1176,0.1173,0.1201,0.1154,0.1149,0.1141,0.1144,0.1138,0.1136,0.1089,0.1089,0.1089,0.1113,0,0,0,0,0,0,0.1379,0.1364,0.1347,0.1299,0.1282,0.1237,0.1219,0.1212,0.1205,0.1205,0.1179,0.1177,0.1154,0.1144,0.1138,0.114,0.1134,0.1088,0.1089,0.1089,0.1112,0.1114,0.1115,0,0,0,0,0,0.1383,0.1365,0.1346,0.1334,0.1261,0.1238,0.1229,0.1207,0.1204,0.1207,0.1186,0.1179,0.1141,0.1142,0.1135,0.1137,0.1088,0.1089,0.1089,0.1111,0.1113,0.1115,0,0,0,0,0,0,0.1405,0.136,0.1339,0.1303,0.1282,0.1237,0.1224,0.1217,0.1198,0.1201,0.1174,0.117,0.1164,0.1147,0.1149,0.1123,0.1115,0.1114,0.1135,0.1136,0.1138,0.12,0.1132,0,0,0,0,0,0.1402,0.1399,0.1341,0.1328,0.13,0.1264,0.125,0.1244,0.1221,0.1214,0.1183,0.1162,0.1151,0.1145,0.1124,0.1106,0.1099,0.1104,0.1106,0.1107,0.1153,0.1117,0.112,0.1089,0.1089,0.1089,0,0,0.1409,0.1391,0.1383,0.1337,0.1304,0.127,0.1259,0.1249,0.1241,0.1214,0.1181,0.1166,0.1149,0.113,0.1126,0.1121,0.1109,0.1107,0.1109,0.1155,0.1118,0.1121,0.1124,0.1089,0.1089,0.1089,0,0,0.1458,0.1393,0.1411,0.1379,0.135,0.13,0.1304,0.1252,0.1243,0.1216,0.1201,0.1205,0.1148,0.1153,0.1148,0.115,0.1119,0.1126,0.1182,0.1144,0.1147,0.115,0.1131,0.1131,0.1125,0.1125,0.1125,0,0.146,0.1459,0.1415,0.1413,0.1385,0.1315,0.1309,0.1271,0.1235,0.1252,0.1215,0.1197,0.1169,0.1202,0.1193,0.1159,0.113,0.1172,0.1148,0.115,0.1152,0.1132,0.1133,0.1126,0.1126,0.1125,0.1125,0,0.1501,0.1498,0.1495,0.1454,0.1427,0.1402,0.1337,0.1311,0.1272,0.1262,0.1284,0.1245,0.1262,0.1227,0.1205,0.122,0.1192,0.1152,0.1145,0.1157,0.1134,0.1135,0.1127,0.1127,0.1127,0.1126,0,0,0.146,0.1517,0.1505,0.1515,0.1438,0.1416,0.139,0.1363,0.1368,0.1334,0.1381,0.1349,0.1364,0.1364,0.1339,0.1297,0.1263,0.123,0.1228,0.1219,0.1183,0.1156,0.1153,0.1196,0.1197,0.1197,0.1156,0,0.1479,0.1536,0.1542,0.1537,0.1519,0.1465,0.1458,0.1446,0.1399,0.1409,0.143,0.1439,0.1404,0.141,0.1381,0.1304,0.1266,0.1279,0.1171,0.1169,0.1148,0.1154,0.117,0.1134,0.1156,0.1156,0.1156,0,0.1489,0.1507,0.1567,0.1602,0.1586,0.157,0.1528,0.1527,0.1538,0.1532,0.1573,0.1566,0.1591,0.1509,0.144,0.1442,0.1334,0.1249,0.1244,0.1225,0.1143,0.1129,0.1133,0.1026,0.1156,0.1156,0.1156,0,0.1488,0.1519,0.1585,0.1573,0.1585,0.1604,0.1583,0.1576,0.1613,0.1613,0.1643,0.1664,0.1679,0.1579,0.1455,0.1428,0.1335,0.1271,0.1156,0.1153,0.1158,0.1155,0.1063,0.1196,0.1196,0.1196,0.1196,0,0.1501,0.1517,0.1588,0.1592,0.1623,0.1631,0.1678,0.165,0.1702,0.1777,0.1732,0.1781,0.168,0.1631,0.1497,0.1361,0.1378,0.1196,0.1147,0.1164,0.1161,0.1061,0.0956,0.1194,0.1195,0.1195,0.1195,0,0.1511,0.1579,0.162,0.1644,0.1652,0.1667,0.1738,0.1774,0.1791,0.188,0.1903,0.1885,0.1792,0.1677,0.1502,0.1412,0.1202,0.1193,0.1237,0.1194,0.099,0.0884,0.0786,0.0778,0.108,0.1079,0.1078,0,0.1533,0.1575,0.1646,0.1677,0.1685,0.1725,0.1777,0.1815,0.1868,0.1948,0.2006,0.1948,0.1957,0.1728,0.1473,0.126,0.1146,0.1147,0.1101,0.1008,0.0854,0.0827,0.0826,0.1108,0.1108,0.1108,0.1107,0,0.1498,0.1563,0.16,0.1689,0.1741,0.1807,0.1868,0.1948,0.2032,0.2116,0.2202,0.2224,0.1988,0.1781,0.1462,0.1309,0.109,0.1132,0.102,0.0872,0.0854,0.0813,0.1113,0.1105,0.1105,0.1105,0.1105,0.1105,0.145,0.1489,0.1596,0.1672,0.1762,0.1861,0.1929,0.2038,0.2177,0.2325,0.2362,0.2414,0.2098,0.1645,0.1445,0.101,0.0989,0.092,0.0802,0.079,0.0778,0.1086,0.1024,0.1024,0.1024,0.1024,0.1024,0,0.1359,0.1456,0.1552,0.1676,0.1792,0.1838,0.1981,0.2072,0.225,0.2407,0.2537,0.2421,0.202,0.1596,0.0955,0.0743,0.0725,0.0626,0.0593,0.0611,0.0874,0.0873,0.0795,0.0795,0.0795,0.0795,0.0795,0.0795,0.1318,0.14,0.149,0.1662,0.1773,0.1895,0.1982,0.2141,0.2273,0.244,0.2498,0.2586,0.2261,0.1145,0.0526,0.0432,0.0312,0.0268,0.0214,0.0363,0.0383,0.0402,0.0382,0.0202,0.0201,0.0074,0.0071,0.0069]}],[{"header":{"parameterUnit":"m.s-1","parameterCategory":2,"la1":30.2991,"la2":30.254,"lo1":-89.0895,"lo2":-89.0444,"dy":0.0017,"dx":0.0017,"nx":28,"ny":28,"refTime":"2023-07-22T09:00:00:Z","depth":"2","parameterNumber":2,"parameterNumberName":"U-component_of_CURRENTS"},"data":[0,0,0,0,0,0,0,0,0,0,0,0,0,0,0,0,0,0,0,0,0,0,0,0,0,0,0,0,0,0,0,0,0,0,0,0,0,0,0,0,0,0,0,0,0,0,0,0,0,0,0,0,0,0,0,0,0,0,0.1568,0.1566,0,0.1526,0.1528,0.1529,0.1613,0.1613,0.1614,0.1614,0.1628,0.1628,0.1627,0,0,0,0,0,0,0,0,0,0,0,0,0,0.1526,0.153,0.1568,0.1565,0.1563,0.1526,0.1528,0.153,0.1613,0.1613,0.1614,0.1615,0.1628,0.1628,0.1627,0,0,0,0,0,0,0,0,0,0,0,0,0,0.1544,0.1531,0.1569,0.1582,0.1581,0.1526,0.1528,0.153,0.1613,0.1613,0.1614,0.1615,0.1628,0.1628,0.1627,0.1611,0,0,0.1627,0.1627,0,0,0,0,0,0,0,0,0.1544,0.1549,0.1583,0.158,0.1579,0.1554,0.1516,0.1551,0.1612,0.1626,0.1614,0.1615,0.1591,0.1594,0.1619,0.1612,0.1612,0.1627,0.1627,0.1627,0.1627,0,0,0,0,0,0,0,0.1543,0.155,0.1577,0.1579,0.1577,0.1521,0.153,0.1524,0.1625,0.1625,0.1625,0.1581,0.1595,0.1619,0.1619,0.1613,0.1627,0.1627,0.1627,0.1626,0.161,0.1609,0,0,0,0,0,0,0.1509,0.155,0.1577,0.1573,0.1535,0.152,0.153,0.1581,0.1624,0.1624,0.1581,0.1585,0.1619,0.162,0.162,0.171,0.1627,0.1626,0.1626,0.161,0.1609,0.1609,0,0,0,0,0,0,0.151,0.1516,0.1579,0.1534,0.1536,0.1519,0.1576,0.1579,0.1615,0.1585,0.1591,0.161,0.162,0.162,0.1657,0.1706,0.1626,0.1626,0.161,0.161,0.1609,0.1819,0,0,0,0,0,0,0.1511,0.1519,0.1557,0.1536,0.1536,0.1529,0.1573,0.1577,0.1574,0.1581,0.1611,0.1613,0.162,0.1658,0.1657,0.1704,0.1626,0.1611,0.161,0.1609,0.1813,0.1826,0.1837,0,0,0,0,0,0.1511,0.1542,0.1563,0.1562,0.159,0.1525,0.1524,0.1527,0.1574,0.1572,0.1636,0.1613,0.1651,0.166,0.1658,0.1707,0.1611,0.161,0.1609,0.1807,0.1823,0.1837,0,0,0,0,0,0,0.1548,0.155,0.1573,0.161,0.1559,0.153,0.1534,0.1532,0.1585,0.1635,0.1635,0.1641,0.1692,0.1643,0.1652,0.1685,0.1615,0.1614,0.1765,0.178,0.1792,0.1648,0.1626,0,0,0,0,0,0.1568,0.1519,0.1565,0.1517,0.1585,0.1572,0.1555,0.156,0.1576,0.1603,0.163,0.1654,0.1681,0.169,0.1697,0.172,0.1657,0.1731,0.1743,0.1755,0.1629,0.1738,0.1751,0.1607,0.1607,0.1607,0,0,0.1527,0.1502,0.1476,0.1504,0.1523,0.1594,0.1574,0.1566,0.1605,0.1594,0.1701,0.171,0.1695,0.1752,0.1763,0.1724,0.1753,0.1754,0.1765,0.1628,0.1739,0.1754,0.1767,0.1606,0.1606,0.1606,0,0,0.137,0.1485,0.1443,0.1493,0.1503,0.1547,0.1555,0.1612,0.1669,0.1724,0.1754,0.1767,0.1811,0.1808,0.1813,0.1866,0.1828,0.1881,0.1831,0.1948,0.1961,0.1972,0.1891,0.1893,0.188,0.188,0.1881,0,0.1349,0.1355,0.1394,0.1445,0.1462,0.1554,0.1589,0.1693,0.1711,0.1684,0.1774,0.1794,0.1824,0.1829,0.1858,0.1897,0.1891,0.1814,0.1972,0.1981,0.1989,0.1903,0.1903,0.189,0.1889,0.1888,0.1887,0,0.1209,0.1302,0.131,0.1417,0.1421,0.1475,0.163,0.1711,0.1797,0.1777,0.181,0.1897,0.1863,0.1915,0.1912,0.1949,0.1901,0.2009,0.1957,0.2018,0.192,0.1917,0.1905,0.1901,0.1898,0.1896,0,0,0.1121,0.1193,0.1259,0.1315,0.146,0.1466,0.159,0.1633,0.1735,0.177,0.1797,0.1833,0.1822,0.1813,0.1871,0.1927,0.2023,0.1974,0.1976,0.1919,0.2151,0.1982,0.196,0.2231,0.2232,0.2233,0.2055,0,0.1078,0.1137,0.1141,0.1248,0.1386,0.1483,0.154,0.1562,0.1708,0.1815,0.1805,0.1877,0.183,0.1903,0.1945,0.1975,0.2022,0.2047,0.2061,0.2053,0.193,0.1956,0.1902,0.173,0.2051,0.205,0.2049,0,0.1063,0.1136,0.1198,0.1244,0.1309,0.1356,0.1515,0.1562,0.1679,0.1745,0.1765,0.1842,0.1783,0.193,0.1875,0.1908,0.2002,0.2046,0.2048,0.1777,0.1879,0.1718,0.171,0.2042,0.2042,0.2043,0.2044,0,0.1059,0.1192,0.1206,0.1279,0.1374,0.1387,0.1412,0.1516,0.1551,0.1751,0.18,0.1785,0.184,0.1889,0.1923,0.1938,0.1959,0.2032,0.1932,0.1916,0.1784,0.1755,0.2118,0.2119,0.2119,0.2119,0.212,0,0.1069,0.1158,0.1269,0.1369,0.1404,0.141,0.1492,0.1546,0.1638,0.1629,0.1765,0.187,0.1873,0.1917,0.1931,0.1825,0.1966,0.182,0.187,0.1846,0.1825,0.2029,0.2021,0.2113,0.2114,0.2115,0.2117,0,0.1081,0.1134,0.1208,0.135,0.1412,0.1432,0.1479,0.1565,0.163,0.1706,0.1721,0.1842,0.1844,0.1856,0.1947,0.1804,0.1791,0.182,0.166,0.1689,0.1622,0.1627,0.1486,0.1479,0.1473,0.1468,0.1464,0,0.1085,0.1154,0.1251,0.1294,0.1384,0.1485,0.1536,0.1562,0.16,0.1698,0.167,0.1789,0.1756,0.1678,0.1694,0.1575,0.1777,0.1405,0.1398,0.1498,0.1563,0.1577,0.1589,0.1295,0.129,0.1285,0.1282,0,0.1169,0.1152,0.1162,0.129,0.136,0.1437,0.1503,0.1494,0.1491,0.1559,0.16,0.1591,0.1578,0.1451,0.1337,0.1289,0.1349,0.1295,0.1571,0.1454,0.1304,0.1372,0.1394,0.1243,0.1247,0.125,0.1252,0.1253,0.1183,0.1119,0.1114,0.1213,0.1259,0.1319,0.1384,0.1356,0.1332,0.1242,0.1404,0.135,0.1222,0.1006,0.1007,0.1099,0.1112,0.0985,0.1007,0.1031,0.1032,0.0881,0.0728,0.0728,0.0729,0.073,0.073,0,0.1176,0.1088,0.1119,0.1129,0.1147,0.1267,0.131,0.1292,0.1216,0.1113,0.1086,0.0942,0.0759,0.083,0.0902,0.0735,0.0826,0.0694,0.087,0.0903,0.0933,0.0941,0.0606,0.0606,0.0607,0.0607,0,0,0.113,0.1032,0.1012,0.1024,0.1109,0.1175,0.1197,0.11,0.1032,0.0838,0.0818,0.0646,0.0705,0.0654,0.0597,0.0692,0.0815,0.0653,0.074,0.0984,0.1017,0.1061,0.11,0,0,0,0,0]},{"header":{"parameterUnit":"m.s-1","parameterCategory":2,"la1":30.2991,"la2":30.254,"lo1":-89.0895,"lo2":-89.0444,"dy":0.0017,"dx":0.0017,"nx":28,"ny":28,"refTime":"2023-07-22T09:00:00:Z","depth":"2","parameterNumber":3,"parameterNumberName":"V-component_of_CURRENTS"},"data":[0,0,0,0,0,0,0,0,0,0,0,0,0,0,0,0,0,0,0,0,0,0,0,0,0,0,0,0,0,0,0,0,0,0,0,0,0,0,0,0,0,0,0,0,0,0,0,0,0,0,0,0,0,0,0,0,0,0,0.0416,0.0412,0,0.0185,0.0184,0.0183,0.009,0.0089,0.0087,0.0086,-0.0042,-0.0044,-0.0046,0,0,0,0,0,0,0,0,0,0,0,0,0,0.0425,0.043,0.0417,0.0412,0.0407,0.0185,0.0184,0.0183,0.0091,0.0089,0.0087,0.0085,-0.0042,-0.0044,-0.0046,0,0,0,0,0,0,0,0,0,0,0,0,0,0.0353,0.0431,0.0417,0.0317,0.0304,0.0185,0.0184,0.0183,0.0091,0.0089,0.0087,0.0084,-0.0041,-0.0044,-0.0047,-0.0021,0,0,-0.0056,-0.0057,0,0,0,0,0,0,0,0,0.0358,0.0356,0.0337,0.0324,0.0309,0.0144,0.0138,0.0112,0.0092,0.0196,0.0086,0.0083,0.0017,0.0009,0.0001,-0.0027,-0.0032,-0.0056,-0.0058,-0.006,-0.006,0,0,0,0,0,0,0,0.0363,0.0363,0.0348,0.0331,0.0314,0.016,0.0154,0.0133,0.0141,0.0187,0.0174,0.0113,0.0013,0.0004,-0.0003,-0.0034,-0.0056,-0.0059,-0.0061,-0.0062,-0.0147,-0.0148,0,0,0,0,0,0,0.0369,0.0371,0.0354,0.0338,0.0303,0.0162,0.0155,0.0218,0.0139,0.0117,0.0115,0.0109,0.001,0.0001,-0.0008,0.0007,-0.0059,-0.0062,-0.0064,-0.0147,-0.0147,-0.0148,0,0,0,0,0,0,0.0373,0.0375,0.0363,0.0322,0.0307,0.0165,0.0235,0.0214,0.0183,0.0079,0.0063,0.0099,0.0008,-0.0004,-0.002,0.0002,-0.0064,-0.0066,-0.0146,-0.0147,-0.0148,0.0045,0,0,0,0,0,0,0.0377,0.0382,0.0421,0.0328,0.0309,0.0226,0.0234,0.021,0.0138,0.0129,0.0061,0.0047,0.0006,-0.0014,-0.0022,-0.0004,-0.0069,-0.0146,-0.0147,-0.0148,0.0039,0.0051,0.0061,0,0,0,0,0,0.038,0.0405,0.0429,0.0421,0.0378,0.022,0.0197,0.0099,0.014,0.0081,0.0102,0.0049,-0.0028,-0.0015,-0.0025,-0.0007,-0.0145,-0.0146,-0.0147,0.0034,0.0049,0.0061,0,0,0,0,0,0,0.0442,0.0394,0.0417,0.0441,0.0316,0.0194,0.0174,0.0107,0.0083,0.0151,0.0073,0.0059,0.0049,-0.0015,0.0,-0.0045,-0.0108,-0.0111,0.0033,0.0046,0.0057,-0.0067,-0.0071,0,0,0,0,0,0.0481,0.0398,0.0396,0.0327,0.0404,0.0314,0.0249,0.019,0.014,0.0128,0.0116,0.0096,0.0041,0.0016,-0.002,-0.0026,-0.0093,-0.0039,-0.0027,-0.0017,-0.0131,-0.007,-0.0062,-0.0151,-0.0151,-0.0151,0,0,0.0421,0.0386,0.0326,0.0314,0.0316,0.0382,0.0279,0.0221,0.0209,0.0128,0.0212,0.0154,0.0048,0.0046,0.003,-0.0006,-0.0031,-0.0018,-0.0008,-0.0132,-0.007,-0.0061,-0.0052,-0.0152,-0.0152,-0.0152,0,0,0.0268,0.0376,0.034,0.0369,0.0355,0.0344,0.0341,0.0345,0.0335,0.0331,0.0301,0.0251,0.0204,0.0134,0.0079,0.0116,0.0039,0.0097,0.005,0.0118,0.0127,0.0133,0.0062,0.0061,0.0094,0.0094,0.0094,0,0.0287,0.0287,0.0262,0.0366,0.0391,0.0375,0.0451,0.0454,0.0385,0.0317,0.0375,0.0277,0.0233,0.0138,0.0118,0.0144,0.0107,0.0036,0.0139,0.0144,0.0147,0.0072,0.0069,0.0103,0.0102,0.0101,0.01,0,0.014,0.0281,0.0315,0.0458,0.0432,0.0494,0.0567,0.0581,0.0598,0.0485,0.0422,0.042,0.0301,0.0303,0.0198,0.0158,0.0099,0.0178,0.0126,0.0169,0.0086,0.0078,0.0116,0.0113,0.011,0.0108,0,0,0.0101,0.02,0.0279,0.04,0.0561,0.053,0.0606,0.0548,0.0587,0.0523,0.0482,0.0361,0.0296,0.0221,0.0185,0.0173,0.0188,0.0137,0.0137,0.0089,0.0223,0.0268,0.0263,0.0321,0.032,0.032,0.0158,0,0.0132,0.026,0.0258,0.0442,0.0656,0.0687,0.071,0.0609,0.0613,0.0614,0.0464,0.0444,0.0302,0.0322,0.0274,0.0197,0.017,0.0213,0.0152,0.0145,0.021,0.0259,0.0187,0.0045,0.015,0.0149,0.0148,0,0.0151,0.0283,0.0424,0.0565,0.0663,0.0709,0.0785,0.0779,0.0697,0.0665,0.0556,0.0496,0.0328,0.0382,0.0185,0.0217,0.017,0.0136,0.0136,0.0071,0.0178,0.0011,0.0026,0.0134,0.0135,0.0136,0.0137,0,0.0163,0.0425,0.0481,0.0593,0.0754,0.0774,0.0801,0.0766,0.0741,0.074,0.0724,0.0554,0.0541,0.0429,0.0253,0.0237,0.0126,0.0168,0.0143,0.0142,-0.0005,-0.0016,0.0108,0.0108,0.0109,0.0109,0.0109,0,0.026,0.0403,0.0547,0.0694,0.0805,0.0854,0.0941,0.0926,0.092,0.0845,0.0774,0.0791,0.0565,0.0465,0.0302,0.0152,0.0183,0.0063,0.0118,0.0059,0.0057,0.0058,0.0054,0.0103,0.0104,0.0105,0.0106,0,0.0277,0.035,0.0511,0.0736,0.0836,0.0891,0.101,0.1069,0.1054,0.1032,0.0997,0.0882,0.0735,0.0536,0.0385,0.0251,0.0133,0.0118,-0.0022,0.002,0.005,0.0057,-0.0014,-0.0013,-0.0013,-0.0013,-0.0012,0,0.0238,0.037,0.0569,0.0662,0.0802,0.0975,0.1094,0.112,0.1151,0.1089,0.1044,0.0944,0.08,0.0569,0.0385,0.013,0.0173,-0.0009,-0.0033,-0.0017,0.0044,0.005,0.0057,-0.0188,-0.0189,-0.019,-0.0191,0,0.0335,0.0352,0.0428,0.0662,0.082,0.1011,0.1181,0.1193,0.1169,0.1182,0.1143,0.104,0.0785,0.0498,0.0225,0.0094,0.0004,-0.0031,0.0077,-0.0096,-0.0177,-0.0117,-0.0107,-0.0199,-0.0198,-0.0197,-0.0197,-0.0196,0.031,0.0316,0.0402,0.0589,0.0758,0.098,0.1133,0.1231,0.1264,0.1121,0.1143,0.0977,0.0563,0.0155,0.0002,-0.0034,-0.0039,-0.014,-0.014,-0.0138,-0.0079,-0.0147,-0.0164,-0.0163,-0.0163,-0.0162,-0.0161,0,0.0268,0.0299,0.0417,0.0571,0.0716,0.0902,0.1142,0.1235,0.1302,0.1101,0.1042,0.0657,0.0297,0.0039,-0.0073,-0.0227,-0.0245,-0.0226,-0.0277,-0.0271,-0.0264,-0.0211,-0.0333,-0.0333,-0.0333,-0.0333,0,0,0.0229,0.0228,0.0284,0.0499,0.0681,0.0944,0.1086,0.121,0.1181,0.0998,0.0853,0.047,0.0189,-0.0004,-0.0218,-0.021,-0.0173,-0.02,-0.0065,-0.0097,-0.0088,-0.0237,-0.0149,0,0,0,0,0]}],[{"header":{"parameterUnit":"m.s-1","parameterCategory":2,"la1":30.2991,"la2":30.254,"lo1":-89.0895,"lo2":-89.0444,"dy":0.0017,"dx":0.0017,"nx":28,"ny":28,"refTime":"2023-07-22T09:00:00:Z","depth":"4","parameterNumber":2,"parameterNumberName":"U-component_of_CURRENTS"},"data":[0,0,0,0,0,0,0,0,0,0,0,0,0,0,0,0,0,0,0,0,0,0,0,0,0,0,0,0,0,0,0,0,0,0,0,0,0,0,0,0,0,0,0,0,0,0,0,0,0,0,0,0,0,0,0,0,0,0,-0.0378,-0.0378,0,-0.0372,-0.0372,-0.0372,-0.0363,-0.0363,-0.0362,-0.0362,-0.0379,-0.038,-0.0381,0,0,0,0,0,0,0,0,0,0,0,0,0,-0.0339,-0.034,-0.0378,-0.0378,-0.0378,-0.0372,-0.0372,-0.0372,-0.0363,-0.0363,-0.0362,-0.0362,-0.0379,-0.038,-0.0381,0,0,0,0,0,0,0,0,0,0,0,0,0,-0.0347,-0.034,-0.0378,-0.0372,-0.0372,-0.0373,-0.0372,-0.0372,-0.0363,-0.0363,-0.0362,-0.0362,-0.0379,-0.038,-0.0381,-0.0393,0,0,-0.0384,-0.0384,0,0,0,0,0,0,0,0,-0.0347,-0.0349,-0.0373,-0.0373,-0.0372,-0.0368,-0.0365,-0.038,-0.0363,-0.0367,-0.0362,-0.0362,-0.0378,-0.0379,-0.0378,-0.0394,-0.0395,-0.0384,-0.0384,-0.0385,-0.0385,0,0,0,0,0,0,0,-0.0346,-0.0349,-0.0376,-0.0373,-0.0372,-0.0356,-0.0357,-0.0367,-0.0375,-0.0366,-0.0365,-0.0364,-0.0377,-0.0377,-0.0379,-0.0395,-0.0384,-0.0385,-0.0385,-0.0386,-0.0499,-0.0501,0,0,0,0,0,0,-0.0349,-0.0349,-0.0376,-0.0376,-0.0358,-0.0357,-0.0358,-0.037,-0.0374,-0.0374,-0.0365,-0.0364,-0.0376,-0.0378,-0.0379,-0.0413,-0.0385,-0.0386,-0.0386,-0.0496,-0.0499,-0.0502,0,0,0,0,0,0,-0.0349,-0.0352,-0.0377,-0.0361,-0.0363,-0.0358,-0.0371,-0.037,-0.0378,-0.0372,-0.0373,-0.0375,-0.0376,-0.0378,-0.0391,-0.0413,-0.0386,-0.0387,-0.0494,-0.0497,-0.0501,-0.0469,0,0,0,0,0,0,-0.0348,-0.0353,-0.0356,-0.0362,-0.0364,-0.0383,-0.0371,-0.037,-0.0377,-0.0376,-0.0381,-0.0382,-0.0376,-0.039,-0.0392,-0.0414,-0.0388,-0.049,-0.0495,-0.0499,-0.0467,-0.0471,-0.0475,0,0,0,0,0,-0.0347,-0.0352,-0.0357,-0.036,-0.0372,-0.0384,-0.0384,-0.0378,-0.0378,-0.0384,-0.0385,-0.0382,-0.0422,-0.0391,-0.0394,-0.0416,-0.0488,-0.0494,-0.0499,-0.0465,-0.0471,-0.0475,0,0,0,0,0,0,-0.0339,-0.0352,-0.0357,-0.0368,-0.0379,-0.0382,-0.0382,-0.0387,-0.0393,-0.0394,-0.039,-0.0391,-0.0416,-0.0433,-0.0399,-0.0472,-0.0465,-0.0471,-0.0439,-0.0444,-0.0448,-0.0431,-0.0389,0,0,0,0,0,-0.034,-0.0345,-0.0362,-0.0369,-0.0379,-0.0385,-0.0388,-0.0393,-0.0399,-0.0402,-0.0404,-0.0423,-0.0442,-0.0452,-0.0469,-0.0497,-0.0491,-0.0527,-0.0531,-0.0533,-0.0528,-0.0557,-0.0561,-0.052,-0.052,-0.052,0,0,-0.034,-0.0344,-0.0349,-0.0367,-0.0374,-0.0393,-0.0387,-0.0401,-0.0411,-0.0404,-0.0416,-0.0428,-0.0453,-0.0478,-0.0495,-0.0492,-0.0538,-0.054,-0.0541,-0.0535,-0.0563,-0.0566,-0.0569,-0.0523,-0.0523,-0.0522,0,0,-0.0335,-0.035,-0.0353,-0.0371,-0.0387,-0.0396,-0.0407,-0.0423,-0.0425,-0.0443,-0.0444,-0.0462,-0.0496,-0.0505,-0.0518,-0.0562,-0.0553,-0.0593,-0.0594,-0.0622,-0.0624,-0.0626,-0.0584,-0.0583,-0.0599,-0.0599,-0.0599,0,-0.0341,-0.0347,-0.0355,-0.0371,-0.0387,-0.0404,-0.0426,-0.0432,-0.0448,-0.0446,-0.045,-0.0489,-0.0506,-0.0526,-0.0547,-0.0564,-0.0562,-0.056,-0.0621,-0.0623,-0.0626,-0.0583,-0.0582,-0.0598,-0.0598,-0.0598,-0.0598,0,-0.0335,-0.0355,-0.0363,-0.0389,-0.0406,-0.043,-0.0451,-0.0458,-0.0468,-0.0473,-0.0491,-0.0505,-0.0527,-0.055,-0.0558,-0.0596,-0.0579,-0.0611,-0.0592,-0.0627,-0.0581,-0.058,-0.0597,-0.0597,-0.0597,-0.0597,0,0,-0.0349,-0.0357,-0.0366,-0.0384,-0.0425,-0.0442,-0.0456,-0.0472,-0.047,-0.049,-0.0491,-0.0528,-0.0531,-0.055,-0.0566,-0.0592,-0.0595,-0.0614,-0.0616,-0.054,-0.0609,-0.0546,-0.0538,-0.0643,-0.0644,-0.0644,-0.0553,0,-0.0358,-0.0365,-0.0378,-0.0418,-0.044,-0.0463,-0.0475,-0.0489,-0.0489,-0.0491,-0.0505,-0.0523,-0.0534,-0.0548,-0.0573,-0.0601,-0.06,-0.0613,-0.0616,-0.0614,-0.0529,-0.0539,-0.0647,-0.0552,-0.0552,-0.0552,-0.0552,0,-0.0371,-0.0375,-0.0393,-0.0431,-0.0444,-0.047,-0.0485,-0.0498,-0.0497,-0.0496,-0.05,-0.0512,-0.0535,-0.0558,-0.0578,-0.059,-0.0596,-0.0607,-0.0605,-0.0558,-0.0552,-0.0527,-0.055,-0.055,-0.055,-0.055,-0.055,0,-0.0369,-0.0404,-0.0409,-0.0428,-0.0463,-0.0475,-0.0495,-0.0498,-0.0501,-0.0501,-0.0496,-0.0515,-0.0536,-0.0555,-0.056,-0.0586,-0.057,-0.0609,-0.0535,-0.0528,-0.062,-0.062,-0.0619,-0.0619,-0.0619,-0.062,-0.062,0,-0.0383,-0.0403,-0.0409,-0.0423,-0.0447,-0.0479,-0.0495,-0.0497,-0.0504,-0.0497,-0.0505,-0.0491,-0.0551,-0.054,-0.0545,-0.0511,-0.055,-0.0518,-0.0511,-0.0606,-0.0606,-0.0616,-0.0617,-0.0616,-0.0617,-0.0618,-0.0618,0,-0.0386,-0.0385,-0.0408,-0.0435,-0.0447,-0.0467,-0.0504,-0.05,-0.0506,-0.0492,-0.0499,-0.0498,-0.0481,-0.0478,-0.0501,-0.0486,-0.0465,-0.0441,-0.0477,-0.0475,-0.04,-0.0402,-0.0355,-0.0353,-0.035,-0.0348,-0.0347,0,-0.0378,-0.0389,-0.0409,-0.0415,-0.0432,-0.0462,-0.0472,-0.0499,-0.0494,-0.0476,-0.0465,-0.0451,-0.0438,-0.0369,-0.0404,-0.0361,-0.0374,-0.034,-0.0431,-0.0381,-0.0379,-0.0384,-0.0388,-0.0343,-0.0342,-0.0342,-0.0341,0,-0.0396,-0.04,-0.0404,-0.0397,-0.0413,-0.0425,-0.0446,-0.0443,-0.0454,-0.0468,-0.0404,-0.0371,-0.0338,-0.0334,-0.0293,-0.0278,-0.0359,-0.0317,-0.0324,-0.0409,-0.0366,-0.0367,-0.0374,-0.0333,-0.0334,-0.0335,-0.0336,0,-0.0403,-0.0404,-0.0393,-0.038,-0.0381,-0.0363,-0.0392,-0.0381,-0.0384,-0.0373,-0.0353,-0.031,-0.0328,-0.0286,-0.0248,-0.0223,-0.0247,-0.0255,-0.0266,-0.0275,-0.0297,-0.0234,-0.0142,0,0,0,0,0,-0.0419,-0.0399,-0.0377,-0.0339,-0.0321,-0.0318,-0.035,-0.0378,-0.0396,-0.0335,-0.0343,-0.0294,-0.0237,-0.0229,-0.0192,-0.0234,-0.0258,-0.019,-0.0275,-0.0289,-0.0298,-0.0336,0,0,0,0,0,0,-0.0424,-0.0416,-0.0367,-0.029,-0.0245,-0.0227,-0.0242,-0.0264,-0.0248,-0.0267,-0.0242,-0.0255,-0.0216,-0.023,-0.017,-0.017,-0.0215,-0.0184,-0.0183,-0.0283,-0.0292,-0.0299,-0.0341,0,0,0,0,0]},{"header":{"parameterUnit":"m.s-1","parameterCategory":2,"la1":30.2991,"la2":30.254,"lo1":-89.0895,"lo2":-89.0444,"dy":0.0017,"dx":0.0017,"nx":28,"ny":28,"refTime":"2023-07-22T09:00:00:Z","depth":"4","parameterNumber":3,"parameterNumberName":"V-component_of_CURRENTS"},"data":[0,0,0,0,0,0,0,0,0,0,0,0,0,0,0,0,0,0,0,0,0,0,0,0,0,0,0,0,0,0,0,0,0,0,0,0,0,0,0,0,0,0,0,0,0,0,0,0,0,0,0,0,0,0,0,0,0,0,-0.0515,-0.0515,0,-0.0544,-0.0544,-0.0545,-0.0617,-0.0619,-0.062,-0.0621,-0.0612,-0.061,-0.0609,0,0,0,0,0,0,0,0,0,0,0,0,0,-0.0486,-0.0486,-0.0515,-0.0515,-0.0515,-0.0544,-0.0544,-0.0545,-0.0617,-0.0619,-0.062,-0.0621,-0.0612,-0.0611,-0.0609,0,0,0,0,0,0,0,0,0,0,0,0,0,-0.0508,-0.0487,-0.0515,-0.0551,-0.0555,-0.0544,-0.0545,-0.0545,-0.0617,-0.0619,-0.062,-0.0622,-0.0613,-0.0611,-0.0609,-0.0561,0,0,-0.0603,-0.0602,0,0,0,0,0,0,0,0,-0.0507,-0.051,-0.0546,-0.0549,-0.0552,-0.0575,-0.0531,-0.0547,-0.0616,-0.0597,-0.0621,-0.0623,-0.0592,-0.0592,-0.06,-0.0561,-0.056,-0.0602,-0.0601,-0.06,-0.06,0,0,0,0,0,0,0,-0.0506,-0.0509,-0.053,-0.0546,-0.055,-0.0554,-0.056,-0.0535,-0.0587,-0.0599,-0.0603,-0.06,-0.0595,-0.0601,-0.06,-0.056,-0.0602,-0.0601,-0.0599,-0.0599,-0.0586,-0.0587,0,0,0,0,0,0,-0.0494,-0.0507,-0.0529,-0.0531,-0.0529,-0.0553,-0.056,-0.0569,-0.0588,-0.0592,-0.0598,-0.0603,-0.0604,-0.0602,-0.0599,-0.0604,-0.06,-0.0598,-0.0597,-0.0585,-0.0586,-0.0587,0,0,0,0,0,0,-0.0494,-0.0496,-0.0528,-0.0516,-0.052,-0.0551,-0.0562,-0.0569,-0.0597,-0.0587,-0.0592,-0.0622,-0.0605,-0.0602,-0.0609,-0.0602,-0.0598,-0.0596,-0.0584,-0.0586,-0.0587,-0.0575,0,0,0,0,0,0,-0.0493,-0.0496,-0.0499,-0.0516,-0.052,-0.0532,-0.056,-0.0568,-0.0589,-0.0597,-0.0607,-0.0608,-0.0606,-0.0612,-0.0607,-0.0599,-0.0594,-0.0583,-0.0585,-0.0586,-0.0574,-0.0575,-0.0577,0,0,0,0,0,-0.0492,-0.0492,-0.05,-0.0502,-0.0524,-0.0531,-0.0534,-0.0564,-0.0589,-0.0598,-0.0619,-0.0609,-0.0619,-0.0611,-0.0604,-0.0596,-0.0582,-0.0584,-0.0586,-0.0573,-0.0575,-0.0577,0,0,0,0,0,0,-0.0479,-0.0499,-0.0509,-0.0514,-0.0524,-0.0542,-0.0548,-0.0569,-0.0593,-0.0598,-0.061,-0.0611,-0.0615,-0.0612,-0.0603,-0.0603,-0.0602,-0.0602,-0.0594,-0.0595,-0.0597,-0.0596,-0.0593,0,0,0,0,0,-0.0473,-0.0485,-0.0497,-0.0502,-0.0507,-0.0529,-0.0536,-0.0551,-0.0569,-0.0584,-0.0603,-0.0615,-0.0612,-0.0612,-0.0611,-0.0598,-0.06,-0.0596,-0.0597,-0.0598,-0.0597,-0.0625,-0.0628,-0.0594,-0.0594,-0.0594,0,0,-0.0467,-0.048,-0.0485,-0.05,-0.0512,-0.0514,-0.0541,-0.0546,-0.0556,-0.0572,-0.0606,-0.0614,-0.0612,-0.0612,-0.0613,-0.0611,-0.0603,-0.06,-0.0601,-0.0599,-0.0627,-0.063,-0.0633,-0.0595,-0.0595,-0.0595,0,0,-0.0458,-0.0473,-0.0479,-0.0482,-0.0491,-0.0503,-0.0508,-0.0535,-0.056,-0.0574,-0.0595,-0.0609,-0.0614,-0.0616,-0.0613,-0.0618,-0.061,-0.0622,-0.0619,-0.0647,-0.0649,-0.0652,-0.0628,-0.0628,-0.0621,-0.0621,-0.0621,0,-0.0449,-0.0464,-0.0479,-0.0478,-0.0483,-0.0501,-0.0503,-0.0516,-0.0548,-0.0568,-0.0586,-0.0616,-0.0613,-0.0608,-0.0619,-0.0617,-0.0623,-0.0607,-0.0647,-0.065,-0.0652,-0.0627,-0.0628,-0.062,-0.0621,-0.0621,-0.0621,0,-0.0443,-0.0451,-0.0453,-0.0467,-0.0468,-0.0472,-0.0482,-0.0502,-0.0536,-0.0559,-0.0584,-0.0593,-0.0617,-0.0614,-0.0613,-0.0628,-0.0621,-0.0644,-0.0637,-0.0655,-0.0627,-0.0628,-0.062,-0.062,-0.062,-0.062,0,0,-0.0452,-0.0452,-0.0457,-0.0464,-0.0465,-0.0473,-0.0475,-0.05,-0.0523,-0.0549,-0.0587,-0.0584,-0.061,-0.0609,-0.0613,-0.0629,-0.0639,-0.0647,-0.0649,-0.0612,-0.067,-0.0648,-0.0646,-0.0681,-0.0682,-0.0682,-0.0632,0,-0.0455,-0.046,-0.0456,-0.0464,-0.047,-0.0474,-0.0486,-0.0499,-0.0526,-0.0566,-0.0573,-0.0607,-0.06,-0.0618,-0.063,-0.065,-0.0647,-0.0648,-0.0669,-0.0668,-0.0639,-0.0649,-0.0685,-0.0632,-0.0632,-0.0633,-0.0633,0,-0.0469,-0.0469,-0.0476,-0.0485,-0.0491,-0.0494,-0.0524,-0.0532,-0.0561,-0.0584,-0.0602,-0.0623,-0.0635,-0.0644,-0.0655,-0.0664,-0.0663,-0.0667,-0.0667,-0.0653,-0.0649,-0.0621,-0.0634,-0.0634,-0.0634,-0.0634,-0.0634,0,-0.0499,-0.0497,-0.0513,-0.0509,-0.0509,-0.052,-0.0532,-0.0551,-0.057,-0.0602,-0.0627,-0.0641,-0.0667,-0.0674,-0.0676,-0.068,-0.0691,-0.0699,-0.0659,-0.0655,-0.0693,-0.0692,-0.0705,-0.0705,-0.0705,-0.0705,-0.0706,0,-0.0519,-0.0535,-0.0531,-0.0533,-0.0558,-0.0549,-0.0582,-0.059,-0.061,-0.0634,-0.0649,-0.066,-0.0689,-0.0697,-0.0683,-0.0668,-0.0695,-0.0652,-0.0652,-0.0685,-0.0683,-0.0691,-0.069,-0.0703,-0.0704,-0.0704,-0.0705,0,-0.0548,-0.055,-0.0561,-0.0562,-0.0571,-0.0588,-0.0608,-0.0631,-0.0644,-0.067,-0.0685,-0.0698,-0.0697,-0.0694,-0.0702,-0.0683,-0.0667,-0.0652,-0.0652,-0.0654,-0.0599,-0.0598,-0.0593,-0.0592,-0.0592,-0.0591,-0.059,0,-0.0559,-0.0565,-0.0581,-0.0593,-0.0595,-0.0619,-0.0642,-0.0654,-0.0663,-0.0679,-0.069,-0.0703,-0.0704,-0.0671,-0.0674,-0.0632,-0.0631,-0.0614,-0.063,-0.0592,-0.0593,-0.0593,-0.0593,-0.0589,-0.0589,-0.0589,-0.0588,0,-0.0554,-0.0571,-0.0571,-0.0599,-0.0624,-0.0659,-0.068,-0.0682,-0.0691,-0.0709,-0.0686,-0.0675,-0.0668,-0.0648,-0.0629,-0.06,-0.0627,-0.0605,-0.0606,-0.0621,-0.0587,-0.0588,-0.0589,-0.0586,-0.0586,-0.0586,-0.0586,0,-0.0548,-0.055,-0.056,-0.0582,-0.0627,-0.0673,-0.0689,-0.0688,-0.0695,-0.0689,-0.0677,-0.0665,-0.0667,-0.063,-0.0605,-0.0585,-0.0574,-0.0568,-0.0571,-0.0574,-0.0595,-0.055,-0.0535,0,0,0,0,0,-0.0524,-0.0522,-0.0543,-0.0568,-0.0625,-0.0658,-0.0699,-0.0709,-0.0705,-0.0685,-0.0673,-0.0652,-0.0617,-0.0603,-0.0575,-0.0594,-0.0582,-0.0562,-0.0579,-0.057,-0.0573,-0.06,0,0,0,0,0,0,-0.0507,-0.0516,-0.0523,-0.0558,-0.0585,-0.0649,-0.0681,-0.0692,-0.0666,-0.0657,-0.0632,-0.0631,-0.0595,-0.062,-0.0565,-0.0562,-0.0567,-0.055,-0.0549,-0.0568,-0.0571,-0.0574,-0.0603,0,0,0,0,0]}]]